Temp
12 12 12 12 12 12 11 11 11 11 11 10 10 9 9 9 8 9 9 8 8 8 8 7 7 7 6 6 7 7 8 8 8 8 8 9 9 10 10 10 10 10 11
12 12 11 11 12 12 11 11 10 10 9 9 9 9 8 8 8 8 8 8 8 8 8 7 6 6 5 5 5 5 6 7 7 7 7 7 8 9 9 9 9 10 10
13 11 11 12 11 10 10 10 10 8 8 8 8 8 8 8 7 7 7 7 7 7 7 6 6 5 4 4 4 2 3 4 5 6 7 7 6 6 8 8 9 9 9
11 11 11 11 11 10 9 9 8 7 7 7 7 7 7 7 7 6 7 6 7 7 6 6 5 4 3 3 2 2 2 2 2 2 3 4 6 4 5 7 7 8 8
10 10 10 10 10 8 8 7 7 7 6 6 6 6 6 6 5 6 6 6 6 6 6 5 4 4 3 2 2 2 2 2 1 1 1 1 2 5 4 4 7 7 7
10 9 9 9 8 7 7 7 6 6 5 5 5 5 5 5 5 5 5 6 6 5 5 4 4 3 2 2 1 1 1 1 1 1 0 0 0 1 3 4 5 6 7
10 9 8 7 7 6 6 6 6 5 5 4 4 4 4 4 4 5 4 4 4 4 4 3 2 2 2 1 1 0 0 0 -0 -1 -1 -1 -1 -0 0 2 3 4 5
7 7 7 7 7 7 6 5 5 4 4 3 3 3 3 3 3 3 4 3 3 2 2 2 2 2 1 0 0 1 -0 -1 -1 -1 -2 -2 -2 -1 -0 0 1 2 2
7 7 6 6 6 5 5 4 4 3 3 3 2 2 2 2 2 2 2 2 2 2 1 1 1 1 1 0 -0 -0 -1 -1 -1 -1 -1 -2 -2 -2 -1 -0 -0 -0 1
8 7 6 6 5 4 4 3 3 3 3 2 2 2 2 2 1 1 1 1 1 1 1 0 0 0 -0 -0 -0 -1 -1 -1 -1 -2 -2 -3 -3 -3 -2 -1 -1 -1 -1
7 6 6 5 5 4 3 3 3 2 2 1 1 1 1 1 1 0 -0 -1 -0 -0 -1 -0 -1 -1 -1 -1 -1 -1 -1 -2 -2 -3 -3 -3 -3 -3 -3 -2 -2 -1 -1
7 6 5 5 5 3 3 2 2 2 2 1 1 0 -0 -0 -0 -1 -1 -1 -1 -1 -1 -1 -1 -2 -2 -2 -2 -2 -2 -2 -3 -3 -3 -4 -4 -4 -3 -3 -3 -2 -2
6 5 4 4 3 3 2 1 1 2 1 1 -0 -0 -0 -1 -1 -1 -2 -2 -2 -2 -2 -2 -2 -2 -2 -2 -2 -3 -3 -3 -3 -4 -4 -5 -5 -5 -4 -4 -4 -3 -3
5 4 3 2 2 1 1 1 1 1 0 -0 -0 -1 -1 -2 -2 -3 -2 -2 -3 -3 -3 -3 -3 -3 -3 -3 -3 -3 -4 -4 -4 -4 -4 -5 -5 -5 -5 -5 -5 -4 -3
4 3 2 2 1 1 0 0 0 0 -0 -1 -1 -1 -1 -2 -3 -3 -3 -3 -4 -5 -4 -3 -3 -3 -3 -4 -4 -4 -5 -5 -5 -6 -6 -5 -5 -6 -6 -6 -5 -5 -4
3 2 1 1 1 0 0 0 -0 -0 -1 -1 -2 -2 -2 -3 -3 -3 -3 -4 -4 -4 -4 -4 -4 -4 -4 -5 -5 -5 -6 -6 -6 -6 -6 -6 -6 -6 -6 -5 -6 -5 -5
2 2 1 1 0 0 0 -0 -1 -1 -2 -2 -2 -2 -3 -4 -3 -4 -4 -4 -4 -4 -5 -5 -5 -5 -6 -6 -6 -7 -7 -7 -7 -7 -7 -6 -6 -6 -6 -6 -5 -5 -5
2 2 1 0 -0 -0 -0 -1 -2 -3 -2 -3 -4 -4 -4 -4 -4 -4 -5 -5 -5 -5 -6 -7 -7 -7 -8 -7 -8 -8 -8 -7 -7 -7 -7 -6 -6 -6 -6 -6 -5 -5 -5
2 2 1 0 -0 -0 -1 -2 -2 -3 -3 -4 -4 -4 -4 -5 -5 -5 -6 -6 -6 -8 -8 -8 -8 -8 -9 -8 -8 -8 -8 -8 -8 -7 -7 -6 -6 -7 -6 -6 -6 -6 -5
2 1 0 -0 -0 -1 -2 -2 -3 -3 -4 -4 -5 -5 -5 -5 -5 -6 -6 -7 -8 -9 -9 -10 -10 -9 -9 -9 -9 -9 -8 -8 -8 -8 -7 -7 -7 -7 -7 -6 -5 -5 -6
1 0 -0 -0 -1 -1 -2 -3 -3 -4 -4 -5 -5 -5 -5 -6 -6 -7 -7 -8 -9 -10 -10 -10 -10 -10 -10 -9 -9 -9 -9 -9 -8 -8 -8 -8 -7 -8 -7 -6 -6 -6 -6
0 0 -0 -1 -1 -2 -2 -3 -3 -4 -5 -5 -6 -6 -6 -7 -7 -7 -8 -9 -10 -10 -10 -10 -10 -10 -10 -10 -10 -10 -10 -10 -10 -8 -9 -8 -8 -7 -7 -6 -6 -6 -6
0 -0 -1 -1 -1 -2 -3 -3 -4 -4 -5 -6 -6 -7 -7 -7 -8 -8 -8 -9 -9 -10 -11 -10 -10 -10 -10 -11 -11 -11 -10 -10 -10 -9 -9 -8 -8 -8 -7 -7 -7 -6 -7
-0 -1 -1 -1 -2 -3 -3 -4 -4 -5 -5 -6 -7 -7 -8 -8 -8 -8 -9 -9 -9 -10 -11 -10 -10 -11 -11 -11 -11 -10 -10 -10 -9 -8 -9 -9 -8 -7 -7 -7 -6 -6 -6
-1 -1 -1 -2 -3 -4 -4 -4 -5 -6 -6 -7 -7 -8 -8 -8 -9 -9 -9 -9 -9 -9 -11 -11 -10 -11 -11 -11 -10 -10 -9 -10 -9 -8 -8 -9 -8 -8 -7 -7 -7 -7 -7
-2 -2 -2 -3 -3 -4 -4 -5 -6 -6 -7 -7 -8 -8 -9 -9 -9 -9 -9 -9 -9 -10 -10 -10 -11 -11 -11 -10 -10 -10 -10 -9 -9 -9 -8 -9 -8 -8 -8 -7 -7 -7 -7
Height
1573 1572 1572 1573 1572 1575 1576 1577 1575 1575 1574 1573 1572 1571 1570 1567 1567 1566 1565 1560 1558 1556 1554 1552 1550 1549 1547 1546 1545 1545 1544 1543 1542 1541 1540 1540 1539 1539 1539 1538 1538 1537 1537
1569 1570 1571 1572 1572 1572 1573 1573 1572 1572 1571 1570 1569 1569 1568 1565 1564 1562 1561 1558 1555 1555 1550 1549 1547 1545 1543 1543 1541 1540 1539 1539 1539 1538 1537 1536 1535 1535 1534 1534 1535 1535 1536
1566 1567 1567 1569 1569 1568 1570 1570 1570 1570 1569 1568 1566 1566 1563 1562 1559 1558 1556 1555 1554 1550 1548 1546 1544 1543 1541 1540 1538 1536 1535 1534 1534 1533 1533 1532 1531 1530 1530 1529 1530 1531 1532
1563 1565 1566 1567 1568 1568 1568 1567 1568 1566 1565 1564 1561 1561 1559 1556 1556 1555 1552 1551 1551 1549 1545 1544 1542 1539 1538 1537 1535 1534 1533 1532 1531 1530 1528 1527 1526 1526 1525 1525 1524 1525 1526
1562 1564 1565 1566 1566 1566 1566 1565 1564 1563 1560 1559 1557 1556 1554 1553 1551 1550 1549 1549 1549 1546 1544 1541 1539 1537 1536 1535 1533 1532 1531 1530 1529 1528 1524 1523 1522 1521 1521 1520 1520 1520 1520
1562 1563 1563 1564 1563 1564 1563 1562 1560 1558 1556 1554 1552 1551 1550 1548 1547 1546 1545 1545 1543 1541 1540 1538 1535 1533 1532 1531 1529 1529 1528 1527 1526 1522 1521 1519 1518 1517 1515 1515 1515 1515 1514
1561 1563 1562 1562 1561 1561 1560 1559 1557 1554 1552 1551 1548 1547 1545 1544 1543 1543 1540 1539 1538 1537 1536 1533 1531 1530 1529 1527 1525 1525 1524 1522 1520 1520 1517 1515 1514 1513 1512 1509 1508 1507 1508
1560 1560 1559 1559 1558 1557 1557 1556 1553 1551 1550 1550 1548 1545 1541 1541 1541 1538 1537 1535 1534 1532 1531 1530 1530 1529 1526 1522 1522 1521 1520 1517 1516 1515 1513 1511 1509 1509 1508 1507 1504 1502 1501
1558 1558 1558 1556 1555 1554 1553 1551 1551 1549 1547 1546 1547 1546 1541 1538 1536 1536 1536 1535 1531 1529 1528 1528 1527 1525 1522 1519 1518 1517 1515 1513 1511 1509 1508 1506 1505 1504 1503 1501 1500 1498 1496
1556 1556 1556 1555 1553 1551 1549 1549 1548 1546 1545 1543 1543 1542 1541 1538 1534 1530 1531 1530 1529 1527 1525 1525 1523 1520 1518 1517 1515 1513 1511 1508 1505 1503 1502 1501 1500 1499 1498 1496 1495 1494 1493
1555 1556 1555 1552 1550 1548 1546 1545 1544 1542 1540 1538 1536 1535 1536 1534 1532 1530 1524 1525 1525 1525 1522 1521 1518 1516 1514 1513 1511 1510 1506 1502 1499 1497 1495 1494 1494 1493 1492 1491 1489 1488 1486
1553 1552 1550 1548 1546 1544 1542 1541 1540 1538 1535 1534 1533 1531 1530 1528 1526 1524 1523 1522 1520 1519 1518 1515 1513 1511 1510 1508 1506 1504 1501 1498 1495 1492 1489 1488 1487 1486 1486 1485 1483 1482 1481
1549 1548 1545 1544 1542 1539 1538 1537 1536 1534 1532 1530 1528 1527 1526 1525 1523 1521 1519 1517 1516 1514 1512 1511 1508 1507 1504 1502 1500 1498 1495 1491 1488 1485 1483 1481 1479 1478 1478 1477 1476 1475 1475
1543 1543 1542 1540 1538 1537 1535 1534 1532 1530 1528 1526 1524 1522 1520 1518 1517 1518 1515 1513 1509 1508 1506 1504 1503 1501 1499 1496 1493 1491 1487 1484 1481 1478 1475 1473 1472 1470 1469 1468 1468 1467 1468
1540 1540 1538 1536 1534 1533 1531 1530 1528 1526 1524 1521 1520 1517 1515 1512 1512 1512 1510 1510 1509 1504 1498 1498 1496 1495 1493 1489 1485 1483 1479 1476 1472 1470 1467 1465 1464 1461 1460 1459 1459 1458 1460
1536 1535 1534 1532 1531 1530 1528 1527 1524 1521 1519 1516 1514 1513 1512 1510 1509 1508 1506 1505 1505 1502 1493 1494 1490 1488 1485 1481 1477 1474 1470 1467 1464 1463 1461 1458 1456 1454 1452 1451 1450 1450 1451
1532 1531 1530 1529 1528 1527 1525 1521 1518 1516 1514 1510 1507 1506 1505 1505 1505 1505 1502 1500 1499 1497 1490 1485 1484 1481 1476 1473 1469 1466 1464 1460 1457 1455 1453 1451 1449 1446 1444 1443 1443 1443 1443
1529 1527 1526 1524 1523 1522 1519 1517 1513 1511 1510 1507 1506 1504 1503 1501 1500 1500 1497 1494 1492 1489 1486 1480 1476 1472 1470 1467 1464 1460 1458 1455 1452 1449 1447 1444 1442 1439 1436 1435 1436 1436 1437
1524 1523 1521 1519 1518 1517 1514 1512 1510 1508 1506 1504 1503 1499 1498 1497 1497 1494 1491 1489 1486 1483 1480 1475 1469 1467 1464 1462 1458 1456 1452 1449 1446 1443 1441 1439 1436 1433 1430 1428 1429 1429 1430
1519 1518 1516 1515 1514 1512 1510 1509 1508 1506 1504 1501 1500 1499 1496 1493 1491 1489 1487 1484 1480 1477 1474 1470 1465 1462 1460 1457 1455 1451 1447 1444 1440 1437 1435 1433 1430 1427 1424 1422 1420 1422 1423
1514 1513 1512 1510 1509 1507 1504 1502 1502 1500 1500 1499 1496 1495 1493 1489 1487 1484 1482 1479 1475 1472 1469 1465 1462 1458 1455 1453 1450 1447 1443 1439 1435 1433 1429 1427 1424 1421 1418 1415 1414 1414 1416
1511 1510 1509 1507 1505 1500 1498 1497 1498 1497 1496 1495 1492 1490 1488 1486 1484 1480 1477 1474 1471 1467 1464 1462 1458 1454 1451 1449 1446 1443 1439 1435 1429 1427 1425 1419 1420 1416 1413 1407 1407 1409 1407
1507 1505 1502 1501 1500 1496 1494 1493 1492 1491 1490 1489 1489 1485 1483 1483 1479 1476 1474 1471 1467 1463 1462 1459 1455 1451 1447 1445 1442 1437 1434 1431 1427 1422 1421 1414 1414 1411 1409 1407 1406 1405 1406
1502 1500 1499 1496 1492 1489 1488 1489 1488 1488 1486 1483 1485 1481 1479 1478 1473 1471 1469 1465 1461 1458 1456 1455 1451 1446 1442 1440 1437 1434 1430 1427 1422 1418 1417 1412 1410 1406 1404 1404 1403 1404 1403
1495 1494 1492 1492 1488 1484 1484 1482 1482 1482 1481 1479 1479 1476 1475 1473 1469 1468 1464 1459 1456 1453 1451 1448 1444 1440 1437 1435 1433 1430 1426 1423 1417 1414 1413 1410 1407 1402 1400 1398 1398 1397 1396
1490 1489 1488 1487 1485 1481 1480 1478 1477 1477 1476 1475 1473 1471 1469 1468 1466 1463 1459 1455 1451 1449 1445 1441 1438 1435 1434 1431 1429 1427 1424 1420 1416 1412 1409 1408 1405 1404 1399 1396 1395 1391 1392
Wind_Speed
6 7 9 6 5 5 5 8 8 14 18 15 17 17 18 19 18 16 18 21 23 24 23 22 21 21 21 21 20 18 18 18 18 16 17 16 19 20 18 17 15 15 15
8 10 7 5 10 12 14 14 19 20 18 12 15 15 17 18 18 19 20 21 24 25 23 18 17 20 22 22 22 20 19 20 20 20 18 17 17 20 22 20 20 18 17
8 6 7 6 11 10 14 17 19 12 12 15 16 18 20 21 23 22 23 22 18 23 20 19 22 21 25 28 25 20 20 20 20 21 22 21 19 19 21 23 23 22 21
4 4 6 9 8 11 14 17 11 13 17 16 18 22 20 23 26 20 19 22 20 22 18 19 18 17 20 24 20 19 20 18 18 19 19 21 24 19 20 24 23 24 24
1 3 7 7 8 6 9 10 14 19 20 24 21 19 23 26 17 20 18 15 13 13 12 14 16 19 18 17 19 21 22 18 20 19 15 15 18 24 23 24 27 26 25
3 1 8 9 8 4 9 15 20 22 22 21 22 21 19 20 20 17 17 12 13 13 11 19 21 18 16 18 18 19 16 19 20 19 17 20 20 20 24 26 29 28 27
3 4 6 4 8 11 14 17 18 19 24 16 22 21 21 21 14 15 14 14 14 17 17 18 16 22 25 25 21 17 22 23 21 19 21 23 23 21 20 22 25 28 29
4 3 9 11 14 17 18 14 18 20 18 18 18 23 21 25 16 20 21 22 17 18 18 20 22 21 25 19 23 22 19 21 25 24 23 25 23 21 21 21 23 25 26
4 7 10 14 17 16 15 17 20 17 17 18 14 17 24 19 27 23 20 21 23 23 21 20 23 22 22 23 22 23 23 26 28 30 29 24 23 21 20 21 19 22 23
11 11 10 14 15 19 21 17 15 19 23 18 19 18 19 25 26 27 16 20 21 20 21 22 23 19 20 22 23 22 27 28 30 30 29 28 28 24 22 20 20 19 23
5 8 10 14 15 17 19 19 21 20 19 18 20 24 23 21 19 19 25 24 23 21 22 23 25 24 24 24 26 25 25 24 29 30 31 29 29 27 25 23 21 20 18
9 12 17 21 22 17 17 18 17 21 23 24 26 22 23 22 19 18 21 23 23 25 23 24 29 28 26 23 23 24 29 29 30 32 32 28 28 28 28 26 23 22 20
12 16 20 19 16 17 18 17 19 23 26 27 23 25 23 24 18 18 20 21 22 28 30 28 26 25 28 31 31 30 31 34 34 30 31 30 29 29 26 27 27 23 21
15 15 15 16 18 17 17 18 20 23 25 23 26 24 24 25 22 18 16 20 24 31 31 30 27 27 28 29 23 29 32 34 36 38 39 39 40 35 33 32 29 27 24
11 11 16 17 16 17 17 17 18 22 23 23 24 26 22 20 14 17 20 20 21 27 32 30 31 29 22 27 30 33 35 36 35 35 36 37 36 31 30 30 34 32 28
12 14 13 15 17 17 17 16 18 20 22 25 23 21 17 13 16 19 17 18 25 27 35 31 29 28 32 33 36 39 33 37 39 36 36 31 31 32 32 30 28 30 30
15 12 14 16 16 15 16 20 22 28 20 26 23 22 13 11 14 17 19 22 23 24 29 33 34 32 32 32 39 33 33 34 31 30 29 31 31 31 32 31 29 27 27
16 15 16 17 16 16 18 20 21 16 20 16 13 12 13 14 17 20 22 23 26 29 31 31 29 30 31 33 29 29 29 30 30 29 30 29 28 31 32 26 26 29 30
16 16 18 18 17 17 17 17 18 17 13 13 15 14 15 16 20 21 22 25 29 26 24 28 33 34 29 27 28 28 29 29 29 28 24 26 26 29 29 28 28 24 27
17 18 19 18 17 19 15 18 13 13 15 11 14 15 17 18 20 22 27 30 25 23 26 27 28 29 27 27 27 28 28 29 30 27 26 27 29 27 29 26 20 23 22
18 20 18 16 16 19 16 18 17 18 18 16 14 17 16 18 22 24 23 24 25 28 29 23 25 28 28 28 28 28 29 29 30 26 26 27 27 27 26 26 20 19 24
16 17 17 18 19 19 20 20 19 18 16 17 14 16 17 15 17 20 20 20 25 29 22 25 30 31 32 29 28 27 31 31 31 30 28 30 25 27 27 16 15 17 13
18 19 19 18 20 22 21 19 17 17 17 11 14 15 16 13 19 21 25 27 27 19 19 22 27 24 24 26 31 34 30 26 28 29 29 33 27 27 22 22 17 14 14
18 18 19 18 19 18 19 20 18 18 18 13 13 16 15 15 22 25 24 27 24 20 14 17 23 27 28 30 21 22 24 28 28 25 24 27 27 28 23 20 19 20 21
18 19 19 20 18 18 21 21 18 18 19 15 16 12 14 18 23 24 26 25 23 21 12 19 26 22 18 18 18 23 26 26 28 26 23 20 23 20 18 20 20 21 21
17 17 19 16 17 18 20 18 19 21 19 17 13 14 16 18 22 24 25 23 22 20 23 22 17 18 16 17 17 17 19 23 23 27 23 20 21 15 19 13 15 13 13
Wind_Direction
200 206 225 212 221 285 298 282 282 298 298 301 306 314 318 327 329 325 319 321 317 317 317 315 313 315 313 309 304 295 287 287 289 287 285 277 270 273 277 277 278 276 270
267 280 232 259 288 299 283 293 313 313 316 329 327 314 319 318 312 308 307 310 303 311 303 306 313 312 316 315 314 304 295 287 283 284 285 287 276 265 270 270 271 272 270
276 245 253 270 275 287 285 300 312 313 311 322 309 312 317 308 297 306 310 302 312 314 298 309 314 314 316 313 320 329 322 307 291 283 278 279 283 276 263 269 263 265 266
190 214 270 280 293 290 308 312 327 291 312 310 310 317 312 298 304 317 311 306 290 300 302 312 306 319 325 326 330 330 335 327 326 318 304 284 270 280 277 264 268 261 261
172 250 267 289 309 310 318 302 280 306 314 314 312 310 305 308 311 308 314 318 319 283 274 303 290 307 330 332 323 323 322 318 322 321 306 316 302 270 275 275 262 264 260
191 226 303 312 321 288 279 289 312 318 313 315 308 310 307 304 315 326 331 300 277 282 296 300 301 300 294 297 323 325 318 312 310 303 311 323 311 306 276 270 270 263 264
240 199 191 251 294 298 303 312 307 303 312 315 317 307 315 318 306 304 298 304 318 321 297 301 310 316 311 299 300 321 314 298 300 308 320 320 317 309 303 290 274 274 263
222 301 293 296 292 299 308 308 304 312 308 309 310 313 321 315 318 298 296 317 312 310 320 304 307 311 305 303 305 298 305 310 307 309 313 315 318 311 302 299 296 278 281
237 293 301 300 302 305 303 303 310 310 297 290 317 308 316 315 316 317 310 304 301 300 313 316 314 305 308 309 303 314 299 303 300 300 297 313 315 308 304 290 293 293 288
303 301 303 314 310 306 309 306 292 286 289 297 297 287 285 303 315 317 312 303 301 303 308 315 315 316 312 308 309 311 303 298 294 297 303 307 307 305 298 297 290 293 292
307 299 279 272 272 282 294 296 300 290 288 282 282 291 291 298 293 300 312 313 305 303 307 310 313 312 313 312 304 303 306 303 306 305 302 303 304 302 295 293 293 289 296
265 267 268 270 284 294 293 285 288 284 272 284 289 296 287 284 286 288 291 298 302 302 306 298 299 303 307 307 304 297 299 301 298 300 299 299 299 298 292 285 290 287 291
259 265 272 288 300 305 303 300 294 278 282 296 283 288 281 271 274 279 278 295 300 296 302 305 304 302 299 300 301 302 298 296 296 297 295 297 297 294 284 281 280 283 283
258 269 287 286 303 303 295 291 298 290 292 286 291 293 293 275 266 279 282 285 300 301 305 304 305 305 305 306 292 295 292 292 293 290 289 289 292 289 285 276 278 275 278
268 268 271 298 306 301 301 300 296 299 296 298 292 293 289 280 265 271 280 291 298 300 301 303 304 309 300 296 294 291 292 293 291 291 289 291 291 290 286 281 272 274 271
262 269 291 301 299 304 309 308 290 285 288 290 291 295 288 282 274 291 298 296 298 299 296 301 304 300 303 297 297 297 288 288 291 293 293 293 293 290 288 283 277 269 266
263 278 286 292 301 302 303 295 288 302 302 298 299 281 282 302 304 299 306 304 299 298 300 300 299 303 296 301 301 298 298 298 298 299 296 293 291 287 284 280 272 267 269
270 275 281 290 296 295 292 296 301 291 302 300 317 311 299 301 299 301 299 295 286 286 294 303 301 301 306 306 305 304 305 299 299 298 301 299 295 290 287 285 274 263 268
271 273 275 287 288 288 291 290 296 301 304 289 288 298 303 303 298 297 286 286 296 298 295 297 298 299 304 307 309 308 307 308 302 305 294 298 297 300 296 287 263 264 266
269 268 276 287 287 289 274 285 287 288 288 291 298 306 301 303 291 291 294 304 308 304 304 303 303 307 309 311 311 313 308 307 308 305 301 302 299 291 292 295 274 259 265
266 271 284 285 285 285 278 279 270 293 276 285 293 294 293 291 294 300 307 313 306 311 314 309 308 311 313 313 312 309 311 315 310 309 305 303 305 305 302 282 262 262 273
280 283 284 283 286 278 284 278 284 294 292 300 297 286 287 298 301 305 303 294 304 306 311 310 310 305 305 303 308 311 312 313 313 307 314 303 310 310 312 297 259 262 292
280 280 282 282 284 277 279 277 275 293 301 301 289 286 295 297 286 287 288 296 304 304 295 302 307 305 307 308 305 305 302 304 303 305 306 301 304 299 305 309 307 307 300
287 288 281 281 280 267 274 280 279 290 303 297 280 289 292 289 283 299 306 311 314 312 306 306 298 295 299 304 305 306 303 303 307 308 316 301 302 304 299 289 286 287 287
281 280 279 282 280 267 273 276 276 284 297 293 281 288 288 288 294 307 311 316 319 323 307 288 292 299 307 310 313 308 304 305 304 310 316 303 304 319 302 293 298 294 294
287 285 273 268 268 271 272 276 281 289 293 295 291 281 287 291 295 305 312 317 320 325 325 329 334 334 324 322 317 316 325 317 317 312 309 308 305 320 324 323 309 306 266